Location: Nordegg
(52.4712°N, 116.0743°W)
Time: 08:39:40
(UTC+00:00)

Envisat - Pass Details

Date: 09 December 2021
Orbit: 764 x 766 km, 98.2° (Epoch: 25 January)

Event Time Altitude Azimuth Distance (km) Brightness Sun altitude
Rises 12:24:32 0° 18° (NNE) 3,247 6.5 -28.8°
Reaches altitude 10° 12:26:56 10° 24° (NNE) 2,316 5.7 -28.5°
Maximum altitude 12:31:52 47° 99° (E) 1,007 3.9 -27.7°
Drops below altitude 10° 12:36:45 10° 173° (S) 2,298 5.6 -27.0°
Sets 12:39:08 0° 179° (S) 3,219 6.3 -26.6°
